Location: Kuppenheim
(48.8299°N, 8.2568°E)
Time: 14:28:36
(UTC+00:00)

USA 308 - Pass Details

Date: 20 June 2021
Orbit: 566 x 576 km, 54.0° (Epoch: 13 July)

Event Time Altitude Azimuth Distance (km) Brightness Sun altitude
Exits shadow 02:28:03 - 249° (WSW) 2,158 5.3 -7.4°
Reaches altitude 10° 02:28:48 10° 250° (WSW) 1,861 5.0 -7.3°
Maximum altitude 02:33:02 73° 335° (NNW) 596 3.1 -6.9°
Drops below altitude 10° 02:37:16 10° 61° (ENE) 1,867 7.0 -6.4°
Sets 02:39:32 0° 64° (ENE) 2,766 8.0 -6.1°
